Helicity
29 22 21 52 47 15 49 102 128 95 56 160 202 143 65 94 110 56 40 75 44 54 115 163 173 160 144 72 203 98 25 146 49 -34 -3 -7 7 11 69 148 105 57 109 149
-5 20 23 26 33 14 69 127 110 68 66 148 112 87 78 73 62 43 41 46 33 49 73 102 110 118 89 59 190 287 291 86 68 4 57 60 40 9 8 23 54 69 101 157
12 11 22 28 11 10 48 117 146 89 90 88 111 68 69 44 36 21 22 48 38 64 63 88 135 165 122 57 21 160 242 80 61 46 28 13 37 109 83 84 89 67 54 14
24 21 16 18 12 20 79 128 169 94 95 112 73 69 83 25 38 27 13 52 44 37 56 64 81 129 96 64 -2 -56 195 187 154 79 137 130 82 56 76 94 80 86 42 67
2 1 -5 13 9 18 106 175 156 73 80 52 4 48 67 97 35 31 26 23 3 13 26 51 92 108 149 144 106 36 -19 228 301 237 154 176 166 153 85 55 79 61 47 57
11 -3 -1 12 23 22 152 90 67 91 86 62 75 39 30 24 39 44 28 15 23 43 40 91 105 66 56 139 157 122 51 93 195 176 158 172 114 76 68 46 32 23 39 30
-2 1 1 14 16 39 115 77 65 66 76 70 41 41 19 20 25 21 36 30 23 47 98 62 50 56 60 44 59 82 90 41 54 68 48 76 85 117 79 41 19 22 51 73
-15 -7 -3 2 3 12 74 72 97 69 38 40 59 26 31 47 49 32 54 36 45 90 68 78 62 41 41 46 46 71 70 126 133 108 89 108 66 84 54 58 41 102 99 131
-10 -14 -10 6 -4 28 62 78 66 78 25 29 50 43 42 40 43 63 2 5 2 45 55 53 78 60 35 32 59 44 66 111 131 55 106 136 90 73 98 92 71 142 187 171
27 -9 -34 -20 -16 38 68 45 47 73 19 31 87 76 50 37 38 55 25 19 -12 44 70 59 52 57 69 66 45 54 95 106 109 138 111 92 56 60 97 136 200 254 222 166
30 7 -18 -26 -37 34 43 33 60 46 21 16 34 121 82 85 45 48 7 19 79 64 60 43 41 55 65 55 46 17 57 104 84 55 66 86 24 91 83 145 163 168 167 104
13 5 -21 -38 -3 24 24 22 32 54 36 22 40 41 50 50 49 23 23 37 40 25 28 50 54 65 57 63 50 -19 42 48 53 43 45 42 58 94 115 92 83 53 23 22
6 -5 -21 -29 -12 0 -8 12 27 56 10 -7 -6 31 42 8 19 22 44 38 -15 49 30 62 48 26 29 37 68 44 27 30 48 73 36 7 80 62 41 70 31 -6 -12 21
4 -7 -8 -6 -2 -1 -7 -11 10 23 57 16 29 30 31 88 15 49 25 49 44 65 53 60 55 46 54 31 51 76 64 51 52 46 43 65 20 23 -41 5 -15 18 45 24
8 3 7 9 10 1 -13 3 -2 4 50 45 72 21 39 20 34 45 36 37 54 32 46 52 47 52 25 28 44 51 36 58 53 60 127 151 127 141 82 42 46 43 34 47
7 5 9 5 -18 -2 46 83 -5 3 29 -58 9 2 33 -9 36 25 36 27 52 43 45 59 38 20 21 26 14 17 106 94 127 89 103 111 111 67 59 65 50 58 54 61
-8 -17 -1 -3 -14 -29 135 130 -4 55 113 21 -4 15 20 -21 7 18 54 38 53 40 51 84 72 76 41 13 25 26 86 101 78 82 95 44 84 113 97 69 70 31 75 112
-1 -5 -20 58 73 144 86 78 17 220 126 61 58 47 31 20 26 36 43 74 63 49 48 60 38 44 36 10 90 124 127 104 74 104 87 79 116 87 73 90 83 94 129 135
18 30 30 146 168 169 146 79 196 202 152 74 40 25 38 48 35 44 37 53 91 70 55 52 27 37 52 87 114 126 128 136 129 106 89 95 71 73 102 99 110 113 140 129
113 243 202 92 85 141 120 164 82 73 69 88 30 60 60 40 45 38 29 40 51 38 14 65 57 72 149 151 103 78 102 98 97 90 125 136 122 114 128 128 139 140 119 116
246 174 110 105 153 123 118 86 66 67 29 15 29 33 54 54 31 38 41 49 48 67 61 64 40 119 142 148 121 102 132 142 122 100 101 127 154 161 126 140 159 155 132 131
143 219 197 142 159 101 79 81 96 70 61 60 67 65 95 66 52 69 43 53 55 56 76 70 75 112 92 91 62 87 104 135 138 150 124 141 165 154 128 180 193 161 158 170
316 271 145 136 94 95 64 70 85 68 79 67 98 104 87 65 43 34 36 40 38 65 64 121 162 126 121 132 80 89 109 93 103 108 127 163 170 167 143 194 183 176 195 203
97 109 124 106 111 98 95 134 140 83 92 77 71 64 54 45 44 29 37 102 94 45 31 72 137 133 119 113 117 110 130 144 135 132 171 176 161 178 185 174 158 148 150 134
87 45 90 78 63 76 97 129 120 94 81 97 49 61 72 84 47 76 64 78 91 103 160 173 120 89 86 93 113 131 146 146 160 154 161 157 133 136 128 115 104 93 83 84
20 12 -8 56 28 46 71 106 71 90 78 79 46 30 22 90 92 71 100 91 113 76 90 118 102 117 136 151 161 166 150 140 124 116 105 90 78 73 71 73 79 80 83 93
-14 3 82 74 68 77 70 87 79 117 118 49 62 47 63 46 63 36 97 41 73 98 120 114 117 135 149 150 144 131 110 94 86 75 65 54 42 39 60 86 78 83 90 87
Wind_Speed
60 49 44 55 52 47 48 49 60 36 20 47 54 67 65 61 53 51 57 54 58 58 56 58 52 50 48 42 48 51 55 51 63 64 61 65 59 61 63 59 47 61 52 44
54 46 49 52 46 38 47 55 59 47 34 61 64 62 70 64 60 53 53 55 55 57 61 58 52 55 40 43 45 42 42 56 60 53 44 49 63 63 67 65 61 55 55 43
51 47 45 41 41 38 41 50 56 54 48 58 63 63 64 62 49 59 50 54 53 54 57 57 61 57 47 47 42 45 49 58 67 67 58 49 55 48 53 54 55 58 55 51
52 51 47 44 37 35 38 46 57 47 55 66 65 63 55 61 58 47 47 54 58 56 64 61 71 70 64 51 37 39 43 57 58 60 53 51 49 50 50 55 57 59 56 54
50 46 44 32 26 26 49 52 49 57 67 57 62 65 66 61 50 46 48 53 51 53 60 58 61 60 60 61 51 46 36 51 53 57 50 53 58 60 60 59 61 62 66 70
46 48 44 31 24 26 53 61 61 57 54 65 62 55 60 60 59 52 48 41 50 49 50 55 58 62 58 67 65 58 53 50 48 59 54 56 68 70 64 61 60 57 61 55
36 38 40 33 27 28 56 56 58 61 68 64 65 68 53 50 55 57 50 53 46 44 41 50 58 65 73 76 78 71 64 57 57 52 44 59 47 34 40 54 57 54 54 51
32 33 34 32 27 29 67 73 61 58 73 75 73 62 62 58 53 54 55 52 48 39 41 52 60 64 66 73 77 73 67 64 66 71 71 65 53 50 52 49 50 40 42 39
31 29 28 28 28 52 79 77 75 62 68 80 70 77 70 62 59 58 48 41 36 39 36 41 56 56 55 53 53 63 62 64 67 55 75 77 60 41 41 41 54 26 36 42
38 35 36 32 30 74 73 70 81 69 78 81 64 56 58 56 55 56 41 43 51 37 41 44 49 51 41 45 47 50 58 62 73 73 74 66 55 38 40 54 37 30 40 44
51 47 45 43 57 83 83 82 74 81 76 82 73 69 67 57 47 48 46 47 39 31 35 42 43 45 44 49 40 42 49 54 60 63 65 72 45 37 45 30 30 36 41 44
62 57 57 61 90 85 87 86 80 72 75 65 62 84 83 73 67 61 55 56 39 40 35 53 41 46 40 46 49 28 44 46 44 44 51 28 26 23 23 30 35 40 44 49
68 68 73 80 90 91 93 84 80 70 76 72 81 81 73 74 83 76 62 54 45 50 52 50 53 52 47 47 53 40 39 45 40 33 35 31 24 26 33 38 45 48 52 57
70 76 81 85 87 88 91 91 84 80 51 66 69 63 77 81 77 79 81 76 62 53 51 46 48 50 46 50 56 51 52 42 53 48 48 45 33 34 40 47 53 58 61 64
71 77 82 84 86 87 88 88 88 88 73 48 62 66 70 63 76 79 72 74 64 51 44 46 51 47 49 55 53 55 53 53 53 46 38 45 36 45 46 55 58 62 66 67
71 76 78 79 82 84 82 68 90 97 84 60 49 42 45 57 63 69 69 67 57 53 43 48 52 51 47 47 52 55 36 34 39 40 43 46 53 48 50 55 59 60 62 63
76 77 74 73 75 80 74 59 54 86 63 58 55 46 33 30 38 49 53 50 45 45 46 41 40 42 40 55 60 33 35 41 44 46 53 49 49 53 53 57 58 57 56 55
81 79 75 33 34 49 62 49 23 31 58 52 46 39 36 32 35 34 31 38 44 45 41 39 45 45 44 55 45 43 44 49 42 46 47 52 54 50 55 56 57 56 55 54
73 69 59 25 44 51 40 17 18 35 42 52 50 47 42 40 38 36 32 34 43 37 49 49 43 46 55 41 42 44 48 50 56 56 52 47 52 53 55 56 56 54 53 50
37 32 42 39 47 23 13 31 35 36 45 46 50 49 43 37 29 34 29 34 40 47 43 38 44 39 31 37 38 42 47 49 49 50 45 54 54 55 55 53 50 47 45 43
45 35 36 25 26 33 34 28 36 33 39 40 40 35 29 26 26 24 19 29 28 43 37 32 36 38 38 39 41 43 46 46 45 43 43 45 46 45 42 43 43 41 38 36
44 38 42 34 21 24 26 29 28 36 35 27 34 31 24 18 20 23 22 26 28 42 18 33 44 33 32 35 38 40 42 43 41 40 39 41 40 39 36 39 38 34 32 31
36 28 29 30 27 29 31 31 31 26 27 27 27 23 21 18 19 22 24 26 29 20 28 37 36 31 34 37 34 36 37 35 35 35 36 36 35 34 33 35 35 32 30 30
28 26 21 26 26 27 26 25 22 22 21 15 14 10 14 18 17 21 22 22 20 24 32 33 24 34 33 31 32 32 33 32 31 31 32 32 30 32 33 34 34 33 33 32
34 30 20 22 27 29 30 31 27 25 29 27 17 31 32 31 31 35 29 23 23 31 30 30 27 27 27 26 25 26 26 27 28 28 29 29 29 31 33 35 36 35 34 34
33 31 38 38 41 37 37 38 39 38 41 43 40 41 41 37 33 32 34 37 35 37 32 25 23 22 21 21 22 23 23 23 24 25 26 28 30 32 33 34 36 37 37 37
31 32 28 32 31 33 32 35 35 36 41 43 37 37 36 33 38 40 38 43 31 23 22 20 18 19 19 19 19 21 22 23 24 25 27 29 30 31 33 35 35 36 38 38
Wind_Direction
299 297 292 290 287 285 283 283 277 291 277 262 268 266 270 278 286 282 282 286 281 284 286 287 286 283 294 312 306 279 259 270 255 256 254 252 252 249 251 253 263 259 268 276
298 296 293 292 284 277 280 275 275 281 270 264 263 269 270 273 275 278 279 278 282 285 283 282 284 282 300 302 296 295 286 259 256 254 254 259 253 251 253 254 260 264 263 266
294 293 291 291 286 275 272 278 274 267 264 267 268 266 268 267 275 276 278 281 284 284 282 280 277 279 289 293 294 290 292 260 252 251 259 260 250 255 255 258 254 260 263 273
290 288 285 283 280 270 268 268 269 273 266 261 262 265 274 266 267 276 277 276 276 280 279 280 272 271 274 281 290 289 285 260 265 258 267 265 259 252 257 257 260 265 269 274
287 284 280 276 264 261 260 263 268 267 266 269 261 258 261 269 273 270 273 273 279 279 277 278 276 270 269 268 275 281 281 265 268 263 266 265 260 259 260 262 265 269 273 277
285 281 278 267 249 247 260 256 261 270 268 260 261 263 261 263 268 275 274 280 280 281 283 286 281 277 273 266 265 267 269 266 266 261 268 269 261 258 261 264 265 271 272 281
275 273 273 265 252 224 253 254 253 257 257 259 258 258 262 265 266 266 277 275 278 288 298 294 283 275 268 264 258 258 259 262 263 262 265 262 269 287 277 268 272 277 280 287
262 264 266 253 244 237 245 242 248 254 251 249 250 256 257 262 268 268 273 274 281 296 297 287 275 267 265 260 253 251 252 259 261 259 260 265 271 283 276 276 282 284 286 293
235 242 236 240 233 251 238 241 242 250 248 240 252 246 253 258 262 263 271 281 287 276 295 283 266 262 262 260 259 247 247 252 255 261 257 260 273 286 286 287 276 292 299 301
215 214 208 209 212 240 236 241 236 244 241 238 250 253 254 257 258 259 271 259 256 271 269 274 264 261 268 262 256 244 241 246 250 255 261 270 277 282 290 264 276 299 307 307
206 201 196 192 187 230 229 233 237 233 240 240 242 244 247 252 255 253 246 252 267 267 266 269 265 265 267 264 273 251 242 246 251 253 259 260 284 281 271 290 300 308 310 316
198 192 188 186 210 226 224 226 230 237 234 243 249 240 237 238 240 235 246 250 265 258 266 248 263 262 269 265 259 270 253 250 254 254 260 290 297 293 308 299 305 308 309 310
187 186 187 192 202 209 209 219 221 229 229 244 237 228 233 237 232 239 246 246 261 251 253 259 252 252 258 261 254 264 261 251 266 268 267 267 283 299 293 293 293 297 301 304
180 184 189 193 198 198 200 208 213 213 243 238 231 236 230 224 231 226 223 231 248 262 255 259 258 252 260 254 250 255 252 263 254 264 264 266 281 293 293 293 295 297 302 303
176 182 188 193 195 196 199 208 211 204 216 226 234 239 239 242 214 223 229 225 242 257 263 261 252 261 260 258 258 250 252 255 254 263 281 276 291 293 299 299 301 305 305 307
173 180 183 187 189 191 206 227 213 206 214 235 236 252 258 230 227 224 229 231 244 254 265 259 262 266 273 264 255 254 277 284 283 278 287 289 291 303 309 308 310 313 314 317
176 176 181 183 170 179 212 217 221 190 218 230 239 250 258 254 240 236 239 249 255 257 268 271 275 275 275 260 251 289 290 289 291 295 293 293 303 298 309 311 314 317 321 323
180 176 165 210 141 205 207 221 220 167 220 233 238 239 243 245 247 258 260 257 257 263 269 274 275 278 277 262 277 286 292 291 297 301 302 301 304 309 311 314 317 318 319 321
184 185 139 159 206 202 210 171 153 224 235 231 241 239 245 243 253 261 266 268 264 274 264 271 280 277 264 281 287 293 296 298 293 297 302 309 310 312 316 318 319 318 321 324
128 160 189 202 201 134 161 212 224 232 239 245 246 243 251 259 269 265 272 276 270 268 274 283 271 281 290 291 298 303 306 308 311 306 309 312 313 315 319 320 324 325 327 328
182 195 202 155 161 202 223 229 228 239 239 244 248 252 261 280 274 281 293 291 289 275 276 278 282 282 287 297 300 307 314 317 320 323 323 326 326 328 330 333 330 332 329 330
193 170 171 186 211 226 237 237 245 245 248 266 255 262 283 296 296 302 302 302 303 286 305 282 282 301 307 307 309 314 320 324 325 324 328 329 331 333 338 346 347 342 342 338
170 187 211 227 248 243 244 244 252 267 269 273 274 270 277 290 302 314 317 305 301 336 301 292 299 307 306 307 309 317 323 326 330 329 332 341 340 343 350 0 2 3 357 353
205 213 232 244 252 255 258 264 271 285 289 293 299 285 290 288 305 309 320 323 336 324 308 308 320 305 302 295 300 309 319 329 336 342 351 354 357 4 9 9 12 15 10 3
198 208 249 254 242 243 250 248 251 256 244 242 261 236 245 248 261 256 284 310 316 314 320 316 305 288 293 299 312 325 336 339 348 353 357 4 8 13 15 14 17 17 15 11
199 199 191 194 188 195 198 201 203 211 207 203 209 212 223 239 255 270 283 278 287 285 293 312 305 313 320 328 333 337 345 354 1 5 9 13 18 19 20 18 17 18 14 7
206 203 210 203 201 201 206 207 212 216 211 208 223 220 232 253 248 245 265 240 277 302 308 314 333 351 350 356 355 1 6 7 8 9 10 16 18 18 11 9 8 7 4 0